ONEWEB-0681, 56717

Orbit data source: Space-Track

ONEWEB-0681, 56717 is a payload satellite owned by One Web (NAA) (UK) in LEO that was launched on Sat, 20 May 2023 UTC via an FALCON 9 launch vehicle from the Air Force Western Test Range (AFWTR). Payloads include a variety of satellites, spacecraft, and rockets equipped with specific instruments for various scientific and technological missions. These include communications satellites like Starlink; space stations such as the ISS; scientific satellites like the Hubble; Earth observation satellites from companies like Planet Labs, Umbra, and HawkEye 360; GPS; miniature CubeSats for education and research; and military/defense satellites.

Loading next visibility...
ONEWEB-0681 details
Identifier
56717, 2023-068H
Orbit
LEO
Last TLE update17 hours ago
Origin
Flag of UKOne Web (NAA) (UK)
ManufacturerOne Web
MissionOperational Commercial Communications
Bus & MotorARROW, Unknown motor
Mass148 kg wet, ~140 kg dry
Launch date (UTC)
2023-05-20 (2 years ago)
Launch vehicle
FALCON 9
Launch site
Air Force Western Test Range (AFWTR)
Object type
Payload
Rocket body
Debris
Shape & HBRTrap Box + 2 Pan, 5 m
Radar Cross Section2.032 m², Large (>1 m²)

Expand to show TLE details & history

TLE from 17 hours ago
0 ONEWEB-0681
1 56717U 23068H   25014.96560312  .00000009  00000-0 -95464-5 0  9992
2 56717  87.9313 347.2507 0001655  49.4233 310.7045 13.21822420 83320
Epoch: 2025-01-14T23:10Z
Definitive object data (Epoch: 2025-01-14T23:10:28.109Z)
Latitude-0°
Longitude-115.03115°
Altitude1,179.856 km
Speed7.264 km/s
True Right ascension23h 09m 00s
True Declination0° 00' 00"
Sunlit
Object was in daylight at TLE epoch
Visualization TLE readout
Latitude48.16851°
Longitude-112.86731°
Altitude1,184.088 km
Speed7.267 km/s
Apparent Right ascension01h 49m 29s
Apparent Declination11° 12' 58"
Sunlit
Object is in daylight
Visualization observer readout
Local Sidereal Time16:26:56
Azimuth44.377° NE
Elevation-27.184°
Doppler factor1
Orbital elements
Apogee altitude1,176.12 km
Perigee altitude1,173.619 km
Semi-major axis7,553.006 km
Eccentricity0.0001655
Inclination87.9313°
RAAN347.2507°
Arg. of periapsis49.4233°
True anomaly310.69012°
Mean anomaly310.7045°
Eccentric anomaly310.69731°
Mean motion3.30646 °/min
BSTAR-0.0000095464
Orbital period108.88 mins
Loading maneuver chart data...
Loading historical data...
Loading historical data...
Loading historical data...
Loading historical data...
Loading historical data...
Loading historical data...
Loading historical data...

ONEWEB-0681 Visibility forecast

Observer location: undefined°, undefined

Span
Click to sort rows by Start time (UTC) header in descending order
Start Az.
Max El. time (UTC)
Max El. Az.
Max El.
End time (UTC)
End Az.
10 mins2025-01-15 21:06:01.661Z123.948° SE2025-01-15 21:11:01.661Z77.704° E21.816°2025-01-15 21:16:01.661Z29.72° NE
12 mins2025-01-15 22:54:01.661Z197.808° SSW2025-01-15 23:00:01.661Z288.912° WNW40.539°2025-01-15 23:06:01.661Z351.876° N
7 mins2025-01-16 08:31:01.661Z45.4° ENE2025-01-16 08:34:01.661Z73.223° E15.989°2025-01-16 08:38:01.661Z108.686° ESE
12 mins2025-01-16 10:18:01.661Z356.899° N2025-01-16 10:24:01.661Z251.704° W44.644°2025-01-16 10:30:01.661Z186.188° SSW
4 mins2025-01-16 12:10:01.661Z304.433° NW2025-01-16 12:12:01.661Z287.005° WNW12.391°2025-01-16 12:14:01.661Z270.032° WNW
|